Regional Weather Roundup
Issued by NWS Northern Indiana

Home | Current Version | Previous Version | Text Only | Print | Product List | Glossary Off
Versions: 1 2 3 4 5 6 7 8 9 10 11 12 13 14 15 16 17 18 19 20 21 22 23 24 25 26 27 28 29 30 31 32 33 34 35 36 37 38 39 40 41 42 43 44 45 46 47 48 49 50

000
ASUS43 KIWX 232210
RWRIWX

KIWX WEATHER ROUNDUP
NATIONAL WEATHER SERVICE NORTHERN INDIANA
600 PM EDT THU OCT 23 2014

NOTE: "FAIR" INDICATES FEW OR NO CLOUDS BELOW 12,000 FEET WITH NO
SIGNIFICANT WEATHER AND/OR OBSTRUCTIONS TO VISIBILITY.

* THESE STATIONS ARE NOT UNDER NWS QUALITY CONTROL. THEY ALSO MAY NOT
  REPORT WEATHER SUCH AS PRECIPITATION OR FOG.

INZ001>027-232300-
NORTHERN INDIANA

CITY           SKY/WX    TMP DP  RH WIND       PRES   REMARKS
GARY*          MOCLDY    61  41  48 SW9       30.10F
VALPARAISO     CLOUDY    57  40  52 S6        30.10F
MICHIGAN CITY* CLOUDY    55  37  50 SW5       30.10F
LAPORTE*       CLOUDY    57  42  57 SW5       30.11F
KNOX*          CLOUDY    56  40  55 S3        30.09F
SOUTH BEND     CLOUDY    57  40  52 S6        30.12F
ELKHART*       MOCLDY    55  37  50 S8        30.13R
GOSHEN         CLOUDY    56  41  57 SW8       30.12S
MONTICELLO*    CLOUDY    55  42  60 S3        30.11F
LOGANSPORT*    CLOUDY    54  41  62 SW5       30.13F
ROCHESTER*     CLOUDY    57  41  54 S3        30.13F
WARSAW*        CLOUDY    55  39  54 SW3       30.13R
ANGOLA*        CLEAR     54  43  66 CALM      30.11F
FORT WAYNE     MOCLDY    55  41  59 CALM      30.14S
HUNTINGTON*    CLOUDY    56  40  54 CALM      30.13S
PERU/GRISSOM   MOCLDY    55  45  68 W2        30.13S
MARION*        CLOUDY    56  37  49 CALM      30.14S

$$
INZ028>050-232300-
CENTRAL INDIANA

CITY           SKY/WX    TMP DP  RH WIND       PRES   REMARKS
LAFAYETTE      CLOUDY    56  41  57 CALM      30.12F
KOKOMO*        CLOUDY    57  36  44 SW3       30.14S
MUNCIE*        CLOUDY    57  40  52 W5        30.14S
INDIANAPOLIS   CLOUDY    57  39  51 CALM      30.14S

$$
MIZ043>046-050>051-056>058-064>065-071>073-077>080-232300-
SOUTHWEST LOWER MICHIGAN

CITY           SKY/WX    TMP DP  RH WIND       PRES   REMARKS
BATTLE CREEK   PTCLDY    54  38  54 S6        30.11F
BENTON HARBOR  MOCLDY    52  45  77 CALM      30.10F
COLDWATER*     PTCLDY    55  39  55 CALM      30.11F
HILLSDALE*     CLEAR     55  37  50 CALM      30.12F
HOLLAND        MOCLDY    54  44  69 W8        30.12R
GRAND RAPIDS   MOCLDY    56  40  55 CALM      30.10F
KALAMAZOO      PTCLDY    55  38  52 S5        30.12S
STURGIS*       MOCLDY    54  41  62 SW3       30.12S
THREE RIVERS*  FAIR      56  41  58 CALM      30.12S

$$
OHZ001>008-015>018-024>025-232300-
NORTHWEST OHIO

CITY           SKY/WX    TMP DP  RH WIND       PRES   REMARKS
WAUSEON*       FAIR      55  37  50 SW3       30.13F
DEFIANCE       CLEAR     56  38  50 CALM      30.14S
FINDLAY        CLEAR     55  39  54 CALM      30.14S HAZE
TOLEDO EXPRESS CLEAR     56  38  50 SW5       30.14S
TOLEDO METCALF CLEAR     55  39  54 SW5       30.15S
LIMA           CLEAR     56  41  57 N3        30.14S

$$
AND FOR LAKE MICHIGAN COASTAL AND OPEN LAKE BUOY OBSERVATIONS

STATION/POSITION TEMP    WIND        PRES    VSBY  WAVE
                 AIR SEA DIR/SP/G                  HT/PER
                 (F)     (DEG/KT/KT) (MB)    (MI)  (FT/S)
CALUMET HARBOR    59     180/ 10/ 13 1017.6R
MICHIGAN CITY     57     150/  6/  8   N/A
SAINT JOSEPH      54                 1019.6F
SOUTH LAKE BUOY   54 54  170/ 14/ 16 1018.8F         2/ 4

$$
&&



USA.gov is the U.S. government's official web portal to all federal, state and local government web resources and services.